Hughes, AK

8:41 AM AKST on February 01, 2015 (GMT -0900)
Indian Mountain | Change Station
CLOSE
Current Station
Airport
Location: Indian Mountain,
Elevation: 1276 ft
Nearby Weather Stations

Elev 1276 ft 65.99 °N, 153.70 °W | Updated 46 minutes ago

Clear
Clear
-13 °F
Feels Like -13 °F
N
0
Wind Variable Wind from North

Today
High -- | Low -- °F
--% Chance of Precip.
Yesterday
High -- | Low -- °F
Precip. -- in
10:10 AM 4:47 PM
Waxing Gibbous, 95% visible
Pressure 30.38 in
Visibility 10.0 miles
Clouds Clear
Dew Point -17 °F
Humidity 84%
Rainfall 0.00 in
Snow Depth Not available.
UV 0 out of 12
Pollen Not available.
Air Quality Not available.
Flu Activity Not available.
METAR PAIM 011655Z AUTO 00000KT 10SM CLR M25/M27 A3038

More Conditions Fewer Conditions

Pressure 30.38 in
Visibility 10.0 miles
Clouds Clear
Dew Point -17 °F
Humidity 84%
Rainfall 0.00 in
Snow Depth Not available.
UV 0 out of 12
Pollen Not available.
Air Quality Not available.
Flu Activity Not available.
METAR PAIM 011655Z AUTO 00000KT 10SM CLR M25/M27 A3038

More Conditions Fewer Conditions

10-Day Weather Forecast

Almanac

Astronomy

Feb. 01, 2015 Rise Set
Actual Time
Civil Twilight
Nautical Twilight
Astronomical Twilight
Moon
Length of Visible Light
Length of Day
Tomorrow will be .
, % of the Moon is Illuminated

Today's Extremes

State Highs State Lows

Community

WunderPhotos

Upload Photos

1,792,408 photos uploaded!

WunderBlogs® & News

Nearby

Air Quality

  Air Quality AQ Index Pollutant
Not available.

Snow Depth

Station Depth Elevation

Earthquake Activity

City Distance Mag. Time & Date
Minimum magnitude displayed is 2.5.

Coastal Water Temperatures

Place Temperature

Nearby Weather Stations